Probability
0 0 0 0 0 0 0 0 0 0 0 0 0 0 0 0 0 0 0 0 0 0 0 0 0 0 0 0 0 0 0 0 0 0 0 0 0 0 0 0 0 0 0 0
0 0 0 0 0 0 0 0 0 0 0 0 0 0 0 0 0 0 0 0 0 0 0 0 0 0 0 0 0 0 0 0 0 0 0 0 0 0 0 0 0 0 0 0
0 0 0 0 0 0 0 0 0 0 0 0 0 0 0 0 0 0 0 0 0 0 0 0 0 0 0 0 0 0 0 0 0 0 0 0 0 0 0 0 0 0 0 0
0 0 0 0 0 0 0 0 0 0 0 0 0 0 0 0 0 0 0 0 0 0 0 0 0 0 0 0 0 0 0 0 0 0 0 0 0 0 0 0 0 0 0 0
0 0 0 0 0 0 0 0 0 0 0 0 0 0 0 0 0 0 0 0 0 0 0 0 0 0 0 0 0 0 0 0 0 0 0 0 0 0 0 0 0 0 0 0
0 0 0 0 0 0 0 0 0 0 0 0 0 0 0 0 0 0 0 0 0 0 0 0 0 0 0 0 0 0 0 0 0 0 0 0 0 0 0 0 0 0 0 0
0 0 0 0 0 0 0 0 0 0 0 0 0 0 0 0 0 0 0 0 0 0 0 0 0 0 0 0 0 0 0 0 0 0 0 0 0 0 0 0 0 0 0 0
0 0 0 0 0 0 0 0 0 0 0 0 0 0 0 0 0 0 0 0 0 0 0 0 0 0 0 0 0 0 0 0 0 0 0 0 0 0 0 0 0 0 0 0
0 0 0 0 0 0 0 0 0 0 0 0 0 0 0 0 0 0 0 0 0 0 0 0 0 0 0 0 0 0 0 0 0 0 0 0 0 0 0 0 0 0 0 0
0 0 0 0 0 0 0 0 0 0 0 0 0 0 0 0 0 0 0 0 0 0 0 0 0 0 0 0 0 0 0 0 0 0 0 0 0 0 0 0 0 0 0 0
0 0 0 0 0 0 0 0 0 0 0 0 0 0 0 0 0 0 0 0 0 0 0 0 0 0 0 0 0 0 0 0 0 0 0 0 0 0 0 0 0 0 0 0
0 0 0 0 0 0 0 0 0 0 0 0 0 0 0 0 0 0 0 0 0 0 0 0 0 0 0 0 0 0 0 0 0 0 0 0 0 0 0 0 0 0 0 0
0 0 0 0 0 0 0 0 0 0 0 0 0 0 0 0 0 0 0 0 0 0 0 0 0 0 0 0 0 0 0 0 0 0 0 0 0 0 0 0 0 0 0 0
0 0 0 0 0 0 0 0 0 0 0 0 0 0 0 0 0 0 0 0 0 0 0 0 0 0 0 0 0 0 0 0 0 0 0 0 0 0 0 0 0 0 0 0
0 0 0 0 0 0 0 0 0 0 0 0 0 0 0 0 0 0 0 0 0 0 0 0 0 0 0 0 0 0 0 0 0 0 0 0 0 0 0 0 0 0 0 0
0 0 0 0 0 0 0 0 0 0 0 0 0 0 0 0 0 0 0 0 0 0 0 0 0 0 0 0 0 0 0 0 0 0 0 0 0 0 0 0 0 0 0 0
0 0 0 0 0 0 0 0 0 0 0 0 0 0 0 0 0 0 0 0 0 0 0 0 0 0 0 0 0 0 0 0 0 0 0 0 0 0 0 0 0 0 0 0
0 0 0 0 0 0 0 0 0 0 0 0 0 0 0 0 0 0 0 0 0 0 0 0 0 0 0 0 0 0 0 0 0 0 0 0 0 0 0 0 0 0 0 0
0 0 0 0 0 0 0 0 0 0 0 0 0 0 0 0 0 0 0 0 0 0 0 0 0 0 0 0 0 0 0 0 0 0 0 0 0 0 0 0 0 0 0 0
0 0 0 0 0 0 0 0 0 0 0 0 0 0 0 0 0 0 0 0 0 0 0 0 0 0 0 0 0 0 0 0 0 0 0 0 0 0 0 0 0 0 0 0
0 0 0 0 0 0 0 0 0 0 0 0 0 0 0 0 0 0 0 0 0 0 0 0 0 0 0 0 0 0 0 0 0 0 0 0 0 0 0 0 0 0 0 0
0 0 0 0 0 0 0 0 0 0 0 0 0 0 0 0 0 0 0 0 0 0 0 0 0 0 0 0 0 0 0 0 0 0 0 0 0 0 0 0 0 0 0 0
0 0 0 0 0 0 0 0 0 0 0 0 0 0 0 0 0 0 0 0 0 0 0 0 0 0 0 0 0 0 0 0 0 0 0 0 0 0 0 0 0 0 0 0
0 0 0 0 0 0 0 0 0 0 0 0 0 0 0 0 0 0 0 0 0 0 0 0 0 0 0 0 0 0 0 0 0 0 0 0 0 0 0 0 0 0 0 0
0 0 0 0 0 0 0 0 0 0 0 0 0 0 0 0 0 0 0 0 0 0 0 0 0 0 0 0 0 0 0 0 0 0 0 0 0 0 0 0 0 0 0 0
0 0 0 0 0 0 0 0 0 0 0 0 0 0 0 0 0 0 0 0 0 0 0 0 0 0 0 0 0 0 0 0 0 0 0 0 0 0 0 0 0 0 0 0
Wind_Speed
11 12 16 16 17 12 8 10 12 10 5 7 13 18 18 16 15 17 16 14 14 14 11 8 8 9 10 11 14 15 16 16 13 10 9 8 7 6 5 5 7 7 7 7
11 19 18 13 12 12 12 14 14 10 4 7 13 19 19 17 16 15 15 14 14 12 10 10 9 9 11 12 14 15 15 15 15 11 10 8 7 5 5 5 5 6 7 6
22 10 12 12 12 14 15 16 14 12 8 8 11 15 12 10 10 12 13 13 13 12 12 11 11 11 11 12 13 12 15 15 15 13 9 7 6 4 5 6 5 5 6 6
20 10 11 15 17 17 16 12 12 11 10 8 5 11 11 10 11 10 9 8 9 10 11 11 11 11 11 11 11 12 14 14 14 14 12 14 10 8 8 7 6 6 6 6
15 14 15 17 16 16 9 4 7 8 10 12 10 11 11 7 9 7 5 5 6 7 9 11 12 11 10 10 10 11 13 13 14 14 14 14 11 8 7 7 8 7 6 6
9 8 13 13 8 11 8 6 4 4 7 12 10 11 10 6 6 7 7 6 5 5 8 10 10 10 10 10 10 11 12 13 13 14 14 14 13 11 11 10 9 7 5 5
13 9 7 6 9 10 11 9 6 7 8 8 3 8 11 8 8 10 12 11 7 4 7 10 12 12 12 12 11 12 13 13 13 13 13 13 13 13 13 11 10 8 6 6
19 16 15 12 13 12 16 15 10 7 7 4 5 10 9 8 8 9 9 9 6 4 7 10 12 12 12 13 13 13 13 13 13 13 12 11 11 9 8 10 9 8 6 6
18 14 11 12 8 13 13 14 11 8 5 7 8 7 9 8 6 4 4 4 3 3 7 9 11 12 12 13 13 13 14 13 13 13 12 11 11 10 9 9 8 7 6 6
11 12 9 9 6 6 8 10 8 9 8 9 9 10 8 6 4 3 3 3 2 1 5 9 10 12 11 12 12 12 13 13 13 12 11 9 10 10 9 9 9 8 8 7
13 11 9 11 17 18 12 12 10 9 8 8 8 6 5 6 4 3 4 3 3 2 5 8 9 11 11 11 11 12 12 12 12 12 12 11 10 10 10 9 9 9 8 8
15 10 9 10 5 8 16 17 17 12 11 9 8 7 3 6 4 5 5 4 3 2 4 7 9 10 11 12 12 13 13 13 13 12 12 11 11 10 10 10 10 9 9 8
16 12 11 8 7 7 13 16 19 15 10 11 11 8 4 5 5 5 6 5 3 2 4 6 8 10 12 12 13 13 13 13 12 12 12 12 11 11 11 10 9 9 8 8
14 12 16 17 10 14 15 17 19 18 13 15 18 16 10 9 9 9 8 7 5 4 5 6 8 10 11 12 13 13 13 13 12 13 13 13 13 12 11 10 9 9 8 8
13 14 15 11 6 12 15 19 22 24 23 18 17 19 18 15 14 12 10 9 7 7 6 7 8 9 10 12 12 13 13 13 13 13 13 13 12 11 10 10 9 8 8 8
14 12 14 12 9 10 10 16 21 23 22 23 21 20 16 15 13 13 12 11 10 9 8 7 8 9 11 12 12 12 13 13 13 13 13 11 11 10 10 10 9 9 8 8
15 11 13 12 10 7 14 18 19 17 18 18 22 21 14 13 12 12 11 10 10 9 7 7 8 9 9 10 11 12 12 12 12 12 11 11 11 11 10 9 9 9 9 8
17 14 8 7 10 14 10 8 16 19 19 19 17 15 14 14 11 9 10 10 10 8 7 6 6 6 7 8 9 9 10 11 11 11 11 11 11 10 10 10 10 9 8 8
13 13 8 8 11 11 6 7 12 15 16 18 20 19 14 6 5 9 8 8 8 7 5 4 3 4 5 7 8 9 9 9 10 10 10 10 10 10 10 10 10 8 8 8
9 11 9 8 10 12 8 9 9 9 11 11 16 16 12 8 7 6 3 4 4 3 2 2 3 4 5 6 8 9 9 9 10 10 9 9 9 9 9 9 8 7 7 7
14 12 14 11 10 10 4 8 13 11 7 6 11 13 11 11 8 2 4 3 2 2 3 4 4 4 5 6 8 8 8 8 7 7 7 7 8 8 8 7 7 6 6 7
17 14 15 12 11 10 9 13 14 7 3 5 7 9 10 9 5 3 3 3 4 4 4 5 5 5 4 5 6 7 6 5 5 6 6 6 7 6 5 6 6 6 6 7
14 13 10 12 11 2 14 12 8 4 5 6 6 7 8 8 7 6 5 5 4 4 4 4 5 5 4 4 5 5 4 5 5 6 6 5 5 5 5 6 6 6 6 6
6 4 7 7 8 6 10 7 6 6 5 5 5 6 8 8 8 7 6 5 5 5 5 5 5 5 4 4 3 4 4 5 5 5 4 4 4 5 5 5 5 5 6 6
9 10 8 9 5 4 8 11 10 7 5 5 5 6 8 8 7 7 6 6 5 5 4 4 5 5 5 4 4 4 4 5 4 4 3 3 4 4 5 5 6 7 7 7
9 11 13 10 10 9 9 10 11 10 9 9 8 6 6 7 7 7 6 6 6 6 5 5 5 5 4 4 4 4 4 4 4 3 3 3 3 4 4 5 6 8 11 13
Wind_Direction
185 204 213 213 218 237 239 246 258 268 269 264 272 279 282 283 271 265 262 253 244 240 231 211 206 201 195 193 192 188 186 187 184 182 183 183 185 180 180 182 184 188 187 189
191 221 221 219 214 221 233 248 260 272 249 261 284 283 281 275 268 264 264 257 247 239 221 205 199 192 192 189 188 185 184 184 184 185 184 184 177 174 169 167 180 183 185 185
209 214 201 195 199 214 229 242 255 269 288 257 286 281 270 269 266 265 261 257 250 235 222 204 194 190 187 186 185 183 182 183 185 181 172 156 150 151 167 172 172 176 179 179
222 201 183 200 211 217 235 235 249 261 272 278 289 294 287 284 282 272 266 256 250 234 222 204 193 187 184 181 179 181 180 181 182 179 180 178 181 181 183 174 167 166 173 171
211 197 193 207 213 211 232 209 220 243 260 273 254 267 280 278 275 288 302 287 266 238 219 203 193 186 178 171 173 176 176 179 180 184 186 186 187 180 167 163 164 165 166 170
208 195 212 219 205 199 155 135 146 213 248 258 250 246 275 257 271 301 309 309 297 242 213 200 186 176 170 167 169 171 173 177 179 184 186 189 183 172 166 170 170 170 166 170
200 196 193 180 158 168 184 199 219 223 220 243 181 237 258 268 276 286 296 303 306 247 204 191 181 178 173 172 172 174 175 176 179 183 186 188 184 180 179 177 179 175 174 178
198 203 192 189 191 180 195 206 220 242 246 233 190 239 258 283 286 284 286 290 288 237 201 193 188 184 178 176 177 178 179 178 180 183 184 185 182 182 181 181 179 182 183 180
197 200 178 190 194 184 183 212 232 258 270 267 242 247 277 273 267 280 302 303 287 231 200 195 189 189 184 182 183 183 181 179 181 183 181 182 180 179 176 175 178 179 176 168
193 188 167 166 160 200 208 180 181 213 234 245 247 245 247 242 260 315 350 344 339 219 198 195 193 192 190 187 185 186 187 183 181 181 181 180 180 178 174 173 176 176 173 171
191 173 156 175 197 187 177 187 201 209 232 244 251 237 218 240 261 294 324 339 327 242 207 200 196 193 190 187 186 188 188 185 183 183 181 180 178 176 176 178 178 176 176 179
191 188 178 190 191 229 206 202 198 206 211 228 256 256 176 229 251 264 288 309 309 248 212 203 198 192 191 191 191 191 190 189 187 184 183 182 177 176 180 181 179 179 182 187
174 187 176 177 197 192 211 213 214 225 234 223 234 245 157 218 240 245 262 280 289 256 215 202 198 198 198 197 196 195 195 193 187 183 184 182 181 183 186 184 180 183 187 191
178 194 207 210 198 182 198 204 209 214 225 233 235 248 237 240 250 257 264 275 283 264 230 214 208 205 204 202 200 198 197 193 188 186 188 189 188 189 188 184 183 187 192 196
190 207 212 226 188 179 198 203 205 214 225 237 245 247 250 253 257 265 269 274 274 263 238 223 219 213 206 203 202 200 198 193 188 190 193 194 190 187 186 186 188 190 196 202
198 207 200 205 192 193 211 213 210 218 228 238 250 257 257 262 263 264 264 264 263 261 248 232 223 218 211 205 202 198 197 191 189 193 195 190 187 186 188 190 190 192 200 206
185 184 190 204 189 197 232 219 212 215 222 228 238 247 251 249 248 252 258 258 257 260 256 237 225 218 213 207 200 198 194 186 190 194 192 188 188 190 192 190 193 199 205 210
181 185 185 171 172 219 233 204 212 221 228 226 238 249 248 250 257 262 256 255 257 255 252 242 227 217 210 201 194 189 183 183 187 192 192 190 190 192 192 195 201 206 210 216
190 179 172 182 207 232 228 198 198 209 232 227 232 242 246 243 257 253 238 237 247 253 249 240 222 205 190 184 178 173 175 179 186 193 194 191 191 192 194 201 207 210 215 223
190 194 182 184 206 225 220 181 180 191 240 223 218 229 226 189 227 240 181 202 223 226 208 186 165 163 167 166 165 168 174 181 191 194 194 190 192 195 201 206 210 213 219 230
179 193 201 198 216 237 183 146 156 194 227 186 200 210 200 199 221 145 134 151 160 151 142 141 142 145 149 154 162 170 176 189 189 184 185 188 193 200 205 208 212 216 223 234
180 187 199 203 214 222 156 158 189 207 135 165 183 189 190 198 192 172 167 159 152 142 136 138 135 128 131 150 164 170 179 173 166 172 180 188 196 197 203 210 216 222 228 240
195 193 188 199 214 170 167 190 201 167 173 179 178 181 179 182 191 186 182 170 157 148 138 138 134 127 130 151 167 168 158 153 162 172 183 189 195 200 207 215 221 228 233 242
198 185 183 202 218 199 196 207 204 198 198 188 182 173 176 182 182 179 172 166 159 152 146 142 142 139 138 145 156 152 147 157 166 177 184 190 202 212 218 221 225 231 236 245
175 175 190 211 203 193 217 216 210 199 196 183 176 177 183 178 176 175 170 166 160 150 146 149 151 146 143 145 147 143 150 161 172 182 192 204 216 225 232 235 237 241 243 245
179 183 192 208 195 193 205 205 199 192 195 191 178 170 174 179 171 163 160 157 153 150 148 148 148 146 145 148 148 148 158 170 178 193 208 219 229 238 245 253 259 244 248 257